THORAD AGENA D DEB

Satellite information

Favourite Embed

Satellite Type and Status

DEBRISIN ORBIT

Key statistics

Satellite THORAD AGENA D DEB at a glance.

Uptime

20339

Days in orbit

Revolutions

≈ 13.8

Per day

Orbit

SSO

Sun Synchronous Orbit

Inclination

100.0

Latest

Satellite identification and parameters

Extended collection of information and parameters for THORAD AGENA D DEB.

Object identification

Identified? True

Debris? True

Object name: THORAD AGENA D DEB

International designator: 1970-025RQ

Object number (NORAD): 42510

Object ID (CCSDS): 42510

Country: UNITED STATES OF AMERICA (US)

Current information (Y/N): Y

RCS size: SMALL

Orbital parameters

Period: 104.235 minutes

Inclination: 100.0301 deg

SMA: 7336.721 km

Apoapsis: 962.63 km

Periapsis: 954.542 km

RAAN: 231.2819 deg

Eccentricy: 0.00055121

Argument of periapsis: 89.0675 deg

Mean anomaly: 91.6104 deg

Mean motion: 13.81496347 rev/day

Mean motion (dot): 0.0000133 rev/day2

B* drag term: 0.0012951977 1/REarth

Two-line elements (TLE)

Creation date: Sept. 1, 2025, 2:20 a.m.

Reference frame: TEME

Reference center: EARTH

Epoch: Aug. 31, 2025, 5:32 p.m. UTC

TLE line 0: 0 THORAD AGENA D DEB

TLE line 1: 1 42510U 70025RQ 25243.73063088 .00001330 00000-0 12952-2 0 9995

TLE line 2: 2 42510 100.0301 231.2819 0005512 89.0675 91.6104 13.81496347592354

Live tracking on map

Real-time ground track for satellite THORAD AGENA D DEB.

In-orbit conjunctions

A list of the most updated potential collisions computed for object THORAD AGENA D DEB.

Target Orbit TCA Probability of collision Miss distance Type
CZ-6A R/B LEO 2025-08-06 18:34:03 0.0001302765 481.0 (m) ROCKET BODY
COSMOS 489 LEO 2025-04-27 20:43:54 0.0001157106 482.0 (m) PAYLOAD
SL-16 DEB LEO 2024-11-23 19:16:07 0.0001387553 161.0 (m) DEBRIS
THORAD AGENA D DEB SSO 2024-11-09 20:58:53 0.0001360858 588.0 (m) DEBRIS

Associated space launch

Meteorological research and development satellite

THORAD AGENA D DEB was lifted into orbit during the mission ‘Thorad SLV-2G Agena D | Nimbus 4’, on board a Thorad SLV-2G Agena D space rocket.

The launch took place on April 8, 1970, 8:17 a.m. from Space Launch Complex 2E.

For more information about the launch, click the button.

Launch to space Thorad SLV-2G Agena D | Nimbus 4
Thorad SLV-2G Agena D | Nimbus 4

Agency: N/A

Status: Launch Successful

Launch date: April 8, 1970, 8:17 a.m. UTC

Rocket: Thorad SLV-2G Agena D

Launch pad: Space Launch Complex 2E

Location: Vandenberg SFB, CA, USA

...

Latest news about this satellite

There are no fresh news available about this satellite. Check back as we update our databases every day.


Newsletter sign-up

Weekly statistics, charts and insights to help you stay on top of the space industry.